Location: Paddlesworth
(51.1000°N, 1.1333°E)
Time: 21:03:08
(UTC+00:00)

Cosmos 1680 Rocket - Pass Details

Date: 11 May 2021
Orbit: 759 x 781 km, 74.1° (Epoch: 23 June)

Event Time Altitude Azimuth Distance (km) Brightness Sun altitude
Rises 22:04:30 0° 334° (NNW) 3,277 8.6 -16.9°
Reaches altitude 10° 22:06:54 10° 333° (NNW) 2,346 7.4 -17.1°
Maximum altitude 22:12:14 75° 249° (WSW) 813 3.6 -17.4°
Enters shadow 22:14:53 30° 169° (S) 1,368 4.2 -17.6°
